Location: Peterborough
(44.3091°N, 78.3197°W)
Time: 23:35:26
(UTC-04:00)

Tiangong - Pass Details

Date: 08 June 2023
Orbit: 371 x 384 km, 41.5° (Epoch: 02 October)

Event Time Altitude Azimuth Distance (km) Brightness Sun altitude
Exits shadow 04:14:27 14° 257° (WSW) 1,200 -0.1 -11.0°
Maximum altitude 04:17:00 49° 184° (S) 507 -1.9 -10.7°
Drops below altitude 10° 04:20:07 10° 108° (ESE) 1,427 1.1 -10.3°
Sets 04:22:16 0° 103° (ESE) 2,299 2.2 -10.1°
